Location: Gorze? G�rny
(49.8500°N, 19.5000°E)
Time: 01:58:48
(UTC+00:00)

Cosmos 1674 Rocket - Pass Details

Date: 13 May 2021
Orbit: 602 x 631 km, 82.5° (Epoch: 23 June)

Event Time Altitude Azimuth Distance (km) Brightness Sun altitude
Exits shadow 23:34:53 53° 187° (S) 781 3.6 -20.4°
Maximum altitude 23:35:57 89° 103° (ESE) 638 3.5 -20.3°
Drops below altitude 10° 23:40:27 10° 10° (N) 2,025 7.4 -20.2°
Sets 23:42:42 0° 11° (N) 2,938 8.6 -20.1°
